Regional Weather Roundup
Issued by NWS

Home | Current Version | Previous Version | Text Only | Print | Product List | Glossary On
Versions: 1 2 3 4 5 6 7 8 9 10 11 12 13 14 15 16 17 18 19 20 21 22 23 24 25 26 27 28 29 30 31 32 33 34 35 36 37 38 39 40 41 42 43 44 45 46 47 48 49 50
000
ASUS43 KOAX 211310
RWRNE

WEATHER ROUNDUP FOR NEBRASKA
NATIONAL WEATHER SERVICE OMAHA NE
800 AM CDT SUN SEP 21 2014

NOTES: SATELLITE DATA IS BEING USED TO AUGMENT CLOUD COVER ABOVE
       12000 FEET.
       "FAIR" INDICATES FEW OR NO CLOUDS BELOW 12,000 FEET WITH NO
       SIGNIFICANT WEATHER AND/OR OBSTRUCTIONS TO VISIBILITY.

  * THESE STATIONS DO NOT REPORT WEATHER SUCH AS RAIN...SNOW OR FOG.

NEZ001>004-019>022-054>056-211400-
NEBRASKA PANHANDLE

CITY           SKY/WX    TMP DP  RH WIND       PRES   REMARKS
SCOTTSBLUFF    CLEAR     47  42  83 N3        30.36R
ALLIANCE       MOCLDY    43  39  86 N3        30.36R
CHADRON        CLEAR     40  37  89 CALM      30.35R
KIMBALL        PTCLDY    47  41  79 CALM      30.38R
SIDNEY         CLOUDY    52  46  80 CALM      30.38R
$$

NEZ057>060-069>072-079>082-211400-
SOUTHWEST NEBRASKA

CITY           SKY/WX    TMP DP  RH WIND       PRES   REMARKS
NORTH PLATTE   CLEAR     42  40  92 CALM      30.31R
IMPERIAL       PTCLDY    48  43  82 MISG      30.33R
LEXINGTON      CLEAR     45  43  93 NW3       30.29R
MCCOOK         PTCLDY    50  45  83 CALM      30.31R
OGALLALA       CLEAR     51  46  83 CALM      30.33R
$$

NEZ005>010-023>029-035>040-094-211400-
NORTH CENTRAL NEBRASKA

CITY           SKY/WX    TMP DP  RH WIND       PRES   REMARKS
VALENTINE      CLEAR     44  38  79 NW8       30.31R
AINSWORTH      CLEAR     47  38  69 NW8       30.30R
BROKEN BOW     CLEAR     46  39  76 N6        30.28R
O`NEILL        CLEAR     48  43  82 W8        30.26R
ORD            CLEAR     45  41  86 NW6       30.27R
THEDFORD       CLEAR     46  40  82 W7        30.33R
$$

NEZ041-046>049-061>064-073>077-083>087-211400-
SOUTH CENTRAL NEBRASKA

CITY           SKY/WX    TMP DP  RH WIND       PRES   REMARKS
GRAND ISLAND   CLEAR     49  43  80 N7        30.25R
AURORA         CLEAR     49  44  81 N7        30.24S
HASTINGS       CLEAR     50  43  77 NW6       30.25R
HEBRON         CLEAR     54  46  74 NW6       30.22R
HOLDREGE       CLEAR     48  43  84 CALM      30.28R
KEARNEY *      CLEAR     48  41  76 W6        30.27R
YORK           CLEAR     48  46  93 NW8       30.24R
$$

NEZ011>018-030>034-042>045-211400-
NORTHEAST NEBRASKA

CITY           SKY/WX    TMP DP  RH WIND       PRES   REMARKS
NORFOLK        CLEAR     50  44  80 W6        30.22R
ALBION         CLEAR     44  40  86 NW5       30.25R
BLAIR          CLEAR     55  46  71 NW8       30.17R
COLUMBUS *     CLEAR     50  43  76 NW6       30.23R
FREMONT        FAIR      51  48  90 W7        30.20R
TEKAMAH        CLEAR     56  45  66 NW12      30.17R
WAYNE          CLEAR     50  46  84 NW6       30.21R
$$

NEZ050>053-065>068-078-088>093-211400-
SOUTHEAST NEBRASKA

CITY           SKY/WX    TMP DP  RH WIND       PRES   REMARKS
LINCOLN        CLEAR     55  47  74 N8        30.22R
OMAHA EPPLEY   CLEAR     54  48  80 NW7       30.18R
BEATRICE       CLEAR     50  48  92 NW5       30.20R
FALLS CITY     CLEAR     56  53  90 NW7       30.16R
NEBRASKA CITY    N/A     56  45  65 NW9       30.18R
PLATTSMOUTH    CLEAR     54  48  81 W7        30.18R
$$

NEZ044-045-051>053-067-211400-
OMAHA AREA

CITY           SKY/WX    TMP DP  RH WIND       PRES   REMARKS
OMAHA EPPLEY   CLEAR     54  48  80 NW7       30.18R
BLAIR          CLEAR     55  46  71 NW8       30.17R
FREMONT        FAIR      51  48  90 W7        30.20R
MILLARD        CLEAR     56  47  72 NW8       30.18R
OFFUTT AFB     CLEAR     54  53  97 NW8       30.17R
PLATTSMOUTH    CLEAR     54  48  81 W7        30.18R
WAHOO          FAIR      55  46  69 NW8       30.20R
$$


USA.gov is the U.S. government's official web portal to all federal, state and local government web resources and services.